[[[{"header":{"parameterUnit":"kt","parameterCategory":2,"dx":1,"dy":1,"la1":30.253999710083008,"la2":30.299108505249023,"lo1":-89.0895004272461,"lo2":-89.04439544677734,"nx":28,"ny":28,"refTime":"2022-10-18T21:00:00:Z","depth":0,"parameterNumber":1,"parameterNumberName":"U-component_of_WINDS"},"data":[0.5128,0.512,0.512,0.511,0.5107,0.5101,0.5098,0.5095,0.5091,0.5083,0.5079,0.5077,0.5073,0.5067,0.5061,0.506,0.5058,0.5058,0.5057,0.5062,0.5062,0.5063,0.5065,0.5057,0.5057,0.5052,0.5052,0.5052,0.5138,0.5136,0.513,0.5124,0.5119,0.512,0.5115,0.5111,0.5104,0.51,0.5094,0.5086,0.508,0.5075,0.5069,0.5065,0.5065,0.5064,0.5064,0.5063,0.5069,0.5071,0.5064,0.5064,0.5064,0.5064,0.5064,0.5064,0.5157,0.5151,0.5146,0.5139,0.5135,0.513,0.5125,0.5122,0.5115,0.5107,0.5106,0.5098,0.5092,0.5082,0.5077,0.5072,0.5072,0.507,0.5069,0.5069,0.507,0.5082,0.507,0.507,0.507,0.507,0.507,0,0.5169,0.5169,0.5162,0.5155,0.5149,0.5143,0.5137,0.5133,0.513,0.5124,0.5116,0.511,0.51,0.5092,0.5084,0.5079,0.5078,0.5077,0.5076,0.5077,0.5081,0.5081,0.5091,0.5077,0.5077,0.5077,0.5077,0.5077,0.5189,0.5181,0.5173,0.5169,0.5164,0.5156,0.5151,0.5147,0.5142,0.5134,0.5128,0.5119,0.5112,0.5098,0.5092,0.5084,0.5083,0.5078,0.5081,0.5084,0.5085,0.5085,0.5086,0.5078,0.5077,0.5077,0.5077,0,0.5201,0.5197,0.5183,0.5175,0.5173,0.5165,0.5158,0.5151,0.5148,0.5138,0.5135,0.5129,0.5119,0.5114,0.5101,0.5099,0.5088,0.5087,0.5092,0.5091,0.5088,0.5089,0.5073,0.5072,0.5079,0.5079,0.5079,0,0.5216,0.5204,0.5199,0.5191,0.518,0.5176,0.5164,0.5159,0.5152,0.5144,0.5142,0.5134,0.5127,0.5119,0.5115,0.5105,0.5102,0.51,0.5099,0.51,0.5101,0.5096,0.5097,0.5095,0.5095,0.5095,0.5095,0,0.5235,0.5217,0.5204,0.5199,0.5188,0.5182,0.5177,0.5168,0.5162,0.5153,0.5149,0.5138,0.5132,0.5124,0.5119,0.5122,0.5105,0.5108,0.5103,0.5103,0.5099,0.5099,0.5088,0.5095,0.5095,0.5095,0.5095,0,0.5245,0.5236,0.5217,0.5208,0.5203,0.5194,0.5183,0.5173,0.5164,0.5161,0.5153,0.515,0.5138,0.5142,0.5127,0.5132,0.5127,0.5123,0.5122,0.5121,0.5125,0.512,0.5109,0.5108,0.5121,0.5121,0.5121,0,0.527,0.5248,0.5243,0.5224,0.5213,0.5212,0.5201,0.5192,0.5186,0.5177,0.517,0.5158,0.5159,0.5154,0.5147,0.5139,0.5133,0.514,0.5127,0.5127,0.5131,0.5121,0.5121,0.5112,0.5124,0.5124,0.5123,0,0.5287,0.5272,0.5268,0.5263,0.5249,0.5238,0.5225,0.5212,0.5206,0.5194,0.5184,0.5165,0.5166,0.5157,0.5152,0.5145,0.5137,0.5146,0.5145,0.5146,0.5124,0.5125,0.5123,0.5136,0.5135,0.5135,0.5125,0,0.5309,0.5295,0.5285,0.527,0.526,0.5246,0.5238,0.523,0.5227,0.522,0.5203,0.5191,0.5175,0.5171,0.5166,0.5151,0.5153,0.5152,0.5154,0.5147,0.5144,0.5142,0.516,0.516,0.516,0.516,0,0,0.5334,0.5313,0.5306,0.5293,0.5285,0.5281,0.5267,0.5258,0.5239,0.5233,0.5235,0.5206,0.5194,0.5175,0.5172,0.5165,0.5162,0.5163,0.515,0.5149,0.5148,0.5145,0.5143,0.516,0.516,0.516,0.516,0,0.5339,0.5328,0.5314,0.5305,0.529,0.5283,0.528,0.5264,0.5258,0.524,0.5236,0.5225,0.5199,0.5189,0.5181,0.5166,0.5163,0.5162,0.5158,0.515,0.5149,0.5148,0.5145,0.5143,0.516,0.516,0.516,0,0.5356,0.5345,0.5336,0.5315,0.5304,0.5291,0.5292,0.5277,0.5267,0.526,0.5242,0.5233,0.5218,0.5199,0.519,0.5191,0.5165,0.5169,0.5169,0.5168,0.516,0.5159,0.5158,0.5173,0.5173,0.5173,0,0,0.5362,0.5348,0.5333,0.5315,0.5309,0.5297,0.5288,0.5283,0.5269,0.5263,0.5251,0.5238,0.5223,0.5213,0.5199,0.5179,0.5176,0.5172,0.5171,0.517,0.5169,0.5161,0.516,0.5174,0.5174,0.5174,0,0,0.5364,0.5346,0.5345,0.5322,0.531,0.5292,0.5282,0.5279,0.5265,0.5265,0.5254,0.525,0.5232,0.5222,0.5229,0.5199,0.5201,0.52,0.5206,0.5205,0.5204,0.5207,0.5226,0,0,0,0,0,0.5365,0.5349,0.5348,0.5342,0.5313,0.5294,0.529,0.5281,0.5284,0.5276,0.5266,0.5262,0.5224,0.523,0.5224,0.5217,0.5178,0.5177,0.5177,0.518,0.5179,0.5178,0,0,0,0,0,0,0.5363,0.5356,0.5348,0.533,0.5323,0.5294,0.5297,0.5294,0.5284,0.5284,0.5264,0.5261,0.5253,0.5232,0.5227,0.522,0.5227,0.5178,0.5177,0.5176,0.518,0.5179,0.5178,0,0,0,0,0,0.5361,0.5356,0.5311,0.533,0.5324,0.5309,0.5297,0.5295,0.5287,0.527,0.5267,0.5281,0.5253,0.5248,0.5229,0.5223,0.5231,0.5229,0.5177,0.5177,0.5176,0.5179,0,0,0,0,0,0,0.536,0.5353,0.5309,0.5307,0.5335,0.531,0.5306,0.5296,0.5273,0.527,0.5286,0.5287,0.5253,0.5249,0.5246,0.5224,0.5233,0.5231,0.523,0.5177,0.5177,0.5176,0,0,0,0,0,0,0.5356,0.5352,0.5308,0.5315,0.5313,0.5312,0.5308,0.5289,0.5273,0.5291,0.529,0.5287,0.5257,0.525,0.5247,0.5218,0.5235,0.5233,0.5232,0.5232,0.5177,0.5176,0,0,0,0,0,0,0.5354,0.535,0.5315,0.5314,0.5313,0.5289,0.5295,0.5265,0.528,0.5292,0.5281,0.5281,0.5258,0.5255,0.5248,0.522,0.5218,0.5235,0.5234,0.5233,0.5233,0,0,0,0,0,0,0,0.5352,0.538,0.5322,0.5314,0.5312,0.5288,0.5287,0.5287,0.528,0.528,0.5281,0.5281,0.5244,0.5243,0.5241,0.5221,0,0,0.5235,0.5234,0,0,0,0,0,0,0,0,0.5382,0.5381,0.5322,0.5321,0.5321,0.5288,0.5287,0.5287,0.528,0.528,0.5281,0.5281,0.5244,0.5243,0.5241,0,0,0,0,0,0,0,0,0,0,0,0,0,0,0,0.5322,0.5321,0,0.5288,0.5287,0.5287,0.528,0.528,0.528,0.5281,0.5244,0.5242,0.5241,0,0,0,0,0,0,0,0,0,0,0,0,0,0,0,0,0,0,0,0,0,0,0,0,0,0,0,0,0,0,0,0,0,0,0,0,0,0,0,0,0,0,0,0,0,0,0,0,0,0,0,0,0,0,0,0,0,0,0,0,0,0,0,0,0,0,0,0,0]}],[{"header":{"parameterUnit":"kt","parameterCategory":2,"dx":1,"dy":1,"la1":30.253999710083008,"la2":30.299108505249023,"lo1":-89.0895004272461,"lo2":-89.04439544677734,"nx":28,"ny":28,"refTime":"2022-10-18T21:00:00:Z","depth":0,"parameterNumber":2,"parameterNumberName":"V-component_of_WINDS"},"data":[-6.8446,-6.8583,-6.8612,-6.8782,-6.8837,-6.8956,-6.9008,-6.9078,-6.914,-6.9285,-6.9373,-6.9415,-6.9487,-6.9597,-6.9692,-6.9708,-6.9745,-6.9772,-6.9785,-6.9642,-6.9624,-6.9606,-6.9575,-6.978,-6.9781,-6.9928,-6.9929,-6.993,-6.8333,-6.8389,-6.8489,-6.8604,-6.8689,-6.868,-6.8771,-6.8841,-6.8948,-6.9027,-6.9116,-6.9245,-6.9351,-6.9415,-6.952,-6.9583,-6.9583,-6.9608,-6.9602,-6.9613,-6.9462,-6.9428,-6.9606,-6.9606,-6.9606,-6.9606,-6.9606,-6.9606,-6.8135,-6.8218,-6.8305,-6.8413,-6.848,-6.8557,-6.8639,-6.869,-6.8787,-6.8903,-6.8919,-6.904,-6.9123,-6.9265,-6.9319,-6.9413,-6.9389,-6.9425,-6.9434,-6.9441,-6.9444,-6.9221,-6.9433,-6.9433,-6.9432,-6.9432,-6.9432,0,-6.7998,-6.8017,-6.8116,-6.8223,-6.8303,-6.8389,-6.8472,-6.8524,-6.8573,-6.8651,-6.8765,-6.8836,-6.8974,-6.9083,-6.9189,-6.9239,-6.9234,-6.9239,-6.9263,-6.9254,-6.9232,-6.924,-6.8988,-6.9231,-6.923,-6.9229,-6.9228,-6.9227,-6.7797,-6.7892,-6.7999,-6.8063,-6.8116,-6.8221,-6.8289,-6.8326,-6.8396,-6.8503,-6.8573,-6.8684,-6.8775,-6.8952,-6.9008,-6.9111,-6.9109,-6.9198,-6.9125,-6.9113,-6.9105,-6.9098,-6.9105,-6.921,-6.9212,-6.9214,-6.9216,0,-6.7679,-6.7729,-6.7885,-6.7982,-6.8009,-6.8105,-6.8186,-6.827,-6.8311,-6.8431,-6.8461,-6.8525,-6.8636,-6.8679,-6.8815,-6.8833,-6.8986,-6.8984,-6.8956,-6.8956,-6.9037,-6.9027,-6.93,-6.9336,-6.9128,-6.913,-6.9132,0,-6.7525,-6.7648,-6.7713,-6.7801,-6.7938,-6.7973,-6.8106,-6.8155,-6.8229,-6.8325,-6.8329,-6.8418,-6.846,-6.8555,-6.8583,-6.8716,-6.8743,-6.8763,-6.8768,-6.876,-6.8757,-6.8794,-6.8782,-6.8782,-6.8781,-6.8779,-6.8778,0,-6.7332,-6.7514,-6.7658,-6.7707,-6.7823,-6.7889,-6.794,-6.8024,-6.8091,-6.8184,-6.8227,-6.8333,-6.839,-6.8471,-6.8505,-6.8453,-6.8671,-6.8606,-6.8691,-6.869,-6.8733,-6.8729,-6.8964,-6.8776,-6.8776,-6.8776,-6.8775,0,-6.7213,-6.731,-6.7514,-6.7609,-6.7655,-6.7751,-6.7857,-6.795,-6.8038,-6.8062,-6.8136,-6.8143,-6.8267,-6.8199,-6.8368,-6.829,-6.8345,-6.8377,-6.8384,-6.8394,-6.8315,-6.8436,-6.866,-6.8682,-6.8407,-6.8404,-6.8401,0,-6.6977,-6.7197,-6.7229,-6.7422,-6.7528,-6.7525,-6.7632,-6.7711,-6.7753,-6.7847,-6.7893,-6.8001,-6.796,-6.7999,-6.8078,-6.8128,-6.823,-6.8116,-6.8245,-6.825,-6.8217,-6.8425,-6.8445,-6.8607,-6.8363,-6.8367,-6.837,0,-6.68,-6.6943,-6.6975,-6.7031,-6.7144,-6.7235,-6.7358,-6.7474,-6.7535,-6.7625,-6.7726,-6.7883,-6.7856,-6.7922,-6.794,-6.8019,-6.8162,-6.798,-6.7983,-6.8007,-6.8349,-6.8366,-6.8394,-6.8155,-6.816,-6.8164,-6.8339,0,-6.66,-6.6719,-6.681,-6.6937,-6.7015,-6.714,-6.7188,-6.7263,-6.7271,-6.7312,-6.7465,-6.7542,-6.7659,-6.7704,-6.7714,-6.7884,-6.7861,-6.7833,-6.7766,-6.7904,-6.7962,-6.7987,-6.7675,-6.7674,-6.7672,-6.7671,0,0,-6.6359,-6.653,-6.6562,-6.6685,-6.6751,-6.6747,-6.6876,-6.694,-6.7071,-6.7116,-6.7081,-6.731,-6.7375,-6.7554,-6.7601,-6.7651,-6.7683,-6.7634,-6.7839,-6.7858,-6.7875,-6.7937,-6.7962,-6.7669,-6.7668,-6.7668,-6.7667,0,-6.6296,-6.6367,-6.6496,-6.6565,-6.6668,-6.6706,-6.6737,-6.6837,-6.687,-6.7022,-6.7014,-6.7111,-6.7296,-6.7363,-6.7422,-6.7615,-6.7601,-6.7648,-6.7734,-6.7824,-6.7844,-6.7862,-6.7927,-6.795,-6.7664,-6.7664,-6.7664,0,-6.6126,-6.6202,-6.6271,-6.6426,-6.6494,-6.6605,-6.6549,-6.667,-6.6752,-6.674,-6.689,-6.694,-6.7036,-6.7201,-6.7278,-6.7247,-6.7524,-6.7447,-6.7457,-6.7465,-6.7554,-6.7579,-6.76,-6.7312,-6.731,-6.7309,0,0,-6.6064,-6.6176,-6.6268,-6.6416,-6.6459,-6.6519,-6.6584,-6.6599,-6.6687,-6.6722,-6.6785,-6.6869,-6.6976,-6.7046,-6.7149,-6.7326,-6.7346,-6.7401,-6.7418,-6.7432,-6.7447,-6.7539,-6.7564,-6.7303,-6.7303,-6.7303,0,0,-6.6034,-6.6148,-6.6142,-6.632,-6.6405,-6.6504,-6.6592,-6.6586,-6.6685,-6.6675,-6.6707,-6.6731,-6.6887,-6.6936,-6.6858,-6.7125,-6.706,-6.7079,-6.7087,-6.7109,-6.7126,-6.7109,-6.6809,0,0,0,0,0,-6.5994,-6.6134,-6.6127,-6.6165,-6.6362,-6.6508,-6.6533,-6.6563,-6.6515,-6.6583,-6.6635,-6.6618,-6.69,-6.6832,-6.6867,-6.6952,-6.7234,-6.7246,-6.7258,-6.731,-6.7332,-6.7351,0,0,0,0,0,0,-6.6009,-6.6055,-6.6124,-6.6229,-6.6273,-6.6504,-6.6428,-6.644,-6.6509,-6.6503,-6.6609,-6.6622,-6.6648,-6.6816,-6.6847,-6.6927,-6.6798,-6.7239,-6.7249,-6.7259,-6.7318,-6.7336,-6.7351,0,0,0,0,0,-6.6021,-6.6058,-6.6367,-6.6227,-6.6266,-6.6339,-6.6423,-6.6433,-6.6486,-6.6567,-6.6579,-6.6502,-6.665,-6.6678,-6.6834,-6.6912,-6.6777,-6.6788,-6.7246,-6.7254,-6.7261,-6.7327,0,0,0,0,0,0,-6.603,-6.6067,-6.6375,-6.6388,-6.6177,-6.6327,-6.6351,-6.6426,-6.6546,-6.6559,-6.6461,-6.6455,-6.6653,-6.6674,-6.6696,-6.6905,-6.6759,-6.6771,-6.6778,-6.7252,-6.7258,-6.7264,0,0,0,0,0,0,-6.6047,-6.6078,-6.6381,-6.6317,-6.6322,-6.6315,-6.6337,-6.6474,-6.6547,-6.6433,-6.6432,-6.6457,-6.6619,-6.6672,-6.6689,-6.6902,-6.6745,-6.6757,-6.6765,-6.677,-6.7257,-6.7262,0,0,0,0,0,0,-6.606,-6.6087,-6.6314,-6.6318,-6.6323,-6.6468,-6.6436,-6.6636,-6.6493,-6.6428,-6.6481,-6.6476,-6.6618,-6.6635,-6.6685,-6.689,-6.6899,-6.6746,-6.6754,-6.6759,-6.6763,0,0,0,0,0,0,0,-6.6071,-6.5889,-6.6299,-6.6319,-6.6323,-6.6506,-6.6509,-6.6513,-6.6492,-6.6487,-6.6482,-6.6478,-6.6681,-6.6693,-6.6706,-6.6881,0,0,-6.6745,-6.675,0,0,0,0,0,0,0,0,-6.5879,-6.5887,-6.63,-6.6302,-6.6305,-6.6506,-6.6509,-6.6512,-6.6491,-6.6487,-6.6484,-6.648,-6.6684,-6.6694,-6.6704,0,0,0,0,0,0,0,0,0,0,0,0,0,0,0,-6.63,-6.6302,0,-6.6507,-6.6509,-6.6512,-6.6491,-6.6488,-6.6484,-6.6481,-6.6687,-6.6695,-6.6704,0,0,0,0,0,0,0,0,0,0,0,0,0,0,0,0,0,0,0,0,0,0,0,0,0,0,0,0,0,0,0,0,0,0,0,0,0,0,0,0,0,0,0,0,0,0,0,0,0,0,0,0,0,0,0,0,0,0,0,0,0,0,0,0,0,0,0,0,0]}]]]